Location: Unspecified
(0.0000°N, 0.0000°E)
Time: 01:24:17
(UTC+00:00)

Vanguard 1 - Pass Details

Date: 20 November 2019
Orbit: 652 x 3832 km, 34.3° (Epoch: 10 December)

Event Time Altitude Azimuth Distance (km) Brightness Sun altitude
Rises 02:45:24 0° 222° (SW) 7,342 14.4 -41.8°
Reaches altitude 10° 02:51:16 10° 212° (SSW) 6,628 14.2 -40.5°
Maximum altitude 03:10:51 33° 154° (SSE) 5,189 13.9 -36.0°
Drops below altitude 10° 03:28:24 10° 97° (E) 6,079 14.9 -32.0°
Sets 03:33:16 0° 88° (E) 6,707 15.2 -30.9°
